Location: Douglas
(31.5112°N, 82.8487°W)
Time: 11:07:22
(UTC-05:00)

Amateur Radio Satellites - All Passes

Search period start: 23 January 2018 10:37
Search period end: 24 January 2018 10:37
Location: Douglas, 31.5112°N, 82.8487°W

Satellite Date Start Highest point End Downlink Frequencies (MHz)
Time Altitude Azimuth
BEESAT 2 23 Jan 10:52:05 10:55:05 20° 306° (NW) 10:58:06 435.950
TIGRISAT 23 Jan 10:52:48 10:54:48 13° 267° (W) 10:56:48 435.000
POLYITAN 1 23 Jan 10:56:42 10:59:28 17° 69° (ENE) 11:02:15 437.675
RS-15 23 Jan 11:02:37 11:10:14 18° 326° (NNW) 11:17:48 29.354- 29.394
NANOSAT C BR1 23 Jan 11:09:13 11:12:22 21° 71° (ENE) 11:15:33 145.865
LO-87 23 Jan 11:11:11 11:14:15 25° 97° (E) 11:17:17 145.935 - 145.965
AIST 2D 23 Jan 11:14:23 11:17:53 63° 260° (W) 11:21:21 435.315
ESTCUBE 1 23 Jan 11:14:44 11:18:21 24° 96° (E) 11:21:56 437.505/2401.250
YUBILEINY 23 Jan 11:15:44 11:24:08 56° 270° (W) 11:32:31 435.215
O/OREOS (USA 219) 23 Jan 11:16:01 11:19:56 31° 257° (WSW) 11:23:53 437.305
JUGNU 23 Jan 11:19:25 11:24:10 26° 181° (S) 11:28:55 437.505
Max Valier Satellite 23 Jan 11:23:49 11:24:58 11° 291° (WNW) 11:26:07 145.860
QB50P2 23 Jan 11:25:15 11:29:15 44° 74° (ENE) 11:33:18 145.880/145.840
EO-88 23 Jan 11:35:35 11:37:03 12° 290° (WNW) 11:38:31 145.990 - 145.960
SRMSAT 23 Jan 11:45:26 11:49:21 18° 167° (SSE) 11:53:17 437.500
DUCHIFAT 1 23 Jan 11:50:10 11:54:17 58° 75° (ENE) 11:58:26 145.980
EO-79 23 Jan 11:54:53 11:59:06 86° 260° (W) 12:03:21 145.935-145.965
SPROUT 23 Jan 12:13:38 12:17:06 24° 97° (E) 12:20:33 437.525
AO-85 23 Jan 12:17:18 12:20:20 21° 306° (NW) 12:23:30 145.980
POLYITAN 1 23 Jan 12:31:15 12:34:56 30° 262° (W) 12:38:41 437.675
VELOX 1 23 Jan 12:38:14 12:41:47 23° 97° (E) 12:45:19 145.980
BUGSAT 1 23 Jan 12:40:40 12:44:32 45° 74° (ENE) 12:48:28 437.445
NANOSAT C BR1 23 Jan 12:44:30 12:47:53 24° 263° (W) 12:51:18 145.865
LO-87 23 Jan 12:45:26 12:47:20 14° 290° (WNW) 12:49:14 145.935 - 145.965
Oscar 19 23 Jan 12:45:30 12:50:08 34° 71° (ENE) 12:54:47 437.125/150
AO-91 23 Jan 12:48:28 12:51:20 26° 73° (ENE) 12:54:17 145.960
ESTCUBE 1 23 Jan 12:51:27 12:54:59 24° 289° (WNW) 12:58:32 437.505/2401.250
Gurwin Techsat 1B 23 Jan 12:54:00 12:58:35 31° 70° (ENE) 13:03:11 435.225
QB50P2 23 Jan 13:04:00 13:05:11 11° 267° (W) 13:06:23 145.880/145.840
JUGNU 23 Jan 13:08:26 13:12:36 20° 191° (S) 13:16:46 437.505
SRMSAT 23 Jan 13:33:07 13:37:58 26° 176° (S) 13:42:48 437.500
SPROUT 23 Jan 13:49:30 13:52:48 22° 289° (WNW) 13:56:05 437.525
UKube-1 23 Jan 14:03:32 14:06:54 22° 97° (E) 14:10:15 .
SO-50 23 Jan 14:06:23 14:10:58 48° 59° (ENE) 14:15:36 436.795
AO-7 23 Jan 14:13:40 14:21:01 36° 64° (ENE) 14:28:24 .
VELOX 1 23 Jan 14:14:35 14:18:04 23° 289° (WNW) 14:21:32 145.980
DX 1 23 Jan 14:20:48 14:25:07 67° 102° (ESE) 14:29:27 434.975-435.025
Oscar 19 23 Jan 14:25:27 14:29:25 22° 264° (W) 14:33:26 437.125/150
Gurwin Techsat 1B 23 Jan 14:34:06 14:38:26 25° 263° (W) 14:42:47 435.225
50 SAT 23 Jan 14:43:25 14:46:26 46° 284° (WNW) 14:49:25 437.505
ITUPSAT 1 23 Jan 14:55:17 14:57:15 12° 94° (E) 14:59:12 437.325
MOZHAYETS 4 23 Jan 14:56:50 15:00:41 26° 97° (E) 15:04:31
NO-84 23 Jan 14:58:59 15:01:36 21° 125° (SE) 15:04:04 435.350 FM
SRMSAT 23 Jan 15:21:53 15:26:36 24° 187° (S) 15:31:20 437.500
BEESAT 23 Jan 15:30:51 15:35:11 33° 99° (E) 15:39:29 436.000
ITAMSAT 1 23 Jan 15:36:34 15:41:43 79° 76° (ENE) 15:46:54 435.822/435.867
UKube-1 23 Jan 15:39:20 15:42:46 23° 289° (WNW) 15:46:11 .
RS-15 23 Jan 15:40:41 15:49:46 25° 41° (NE) 15:58:27 29.354- 29.394
SO-50 23 Jan 15:48:28 15:51:00 14° 252° (WSW) 15:53:33 436.795
M-CUBED/EXP-1 PRIME 23 Jan 15:55:50 15:59:33 28° 69° (ENE) 16:03:04 437.505
AO-7 23 Jan 16:05:44 16:13:30 43° 259° (W) 16:21:21 .
DOVE 4 23 Jan 16:07:21 16:11:11 33° 74° (ENE) 16:14:56 437.250
ITUPSAT 1 23 Jan 16:30:36 16:35:16 51° 287° (WNW) 16:39:54 437.325
MOZHAYETS 4 23 Jan 16:34:03 16:37:39 23° 290° (WNW) 16:41:14
NO-84 23 Jan 16:36:10 16:38:40 20° 316° (NW) 16:41:02 435.350 FM
CUBESAT XI-V 23 Jan 16:44:08 16:48:45 79° 282° (WNW) 16:53:19 437.345
HO-68 23 Jan 16:56:57 16:58:50 11° 58° (ENE) 17:00:45 435.675
XW-2D 23 Jan 16:58:56 17:01:03 14° 70° (ENE) 17:03:10 145.860 - 145.880
BEESAT 23 Jan 17:09:14 17:12:39 20° 292° (WNW) 17:16:03 436.000
SRMSAT 23 Jan 17:11:54 17:15:12 15° 196° (SSW) 17:18:29 437.500
XW-2B 23 Jan 17:15:39 17:18:41 23° 72° (ENE) 17:21:42 145.730 - 145.750
M-CUBED/EXP-1 PRIME 23 Jan 17:30:39 17:33:48 19° 258° (WSW) 17:36:50 437.505
CUTE-I 23 Jan 17:31:37 17:36:25 36° 71° (ENE) 17:41:13 437.470
KKS-1 23 Jan 17:40:08 17:44:30 52° 101° (E) 17:48:51 437.445
XW-2C 23 Jan 17:45:20 17:49:07 61° 76° (ENE) 17:52:53 145.795 - 145.815
DOVE 4 23 Jan 17:46:35 17:48:55 14° 265° (W) 17:51:11 437.250
LilacSat-2 23 Jan 17:47:02 17:50:52 72° 78° (ENE) 17:54:43 437.200
STARS 23 Jan 17:48:00 17:51:27 22° 97° (E) 17:54:54 437.465
RS-15 23 Jan 17:52:09 18:03:45 87° 245° (WSW) 18:14:46 29.354- 29.394
CUTE 1.7 + AOD 2 23 Jan 17:52:18 17:55:12 18° 70° (ENE) 17:58:05 437.475
nSIGHT-1 23 Jan 18:01:15 18:02:59 14° 127° (SE) 18:04:43 .
KAITUO 1B 23 Jan 18:11:25 18:15:12 86° 263° (W) 18:18:57 145.475/437.950
NUDT-PHONESAT 23 Jan 18:16:40 18:20:23 78° 259° (W) 18:24:07 437.300
BEESAT 3 23 Jan 18:17:30 18:21:14 43° 59° (ENE) 18:24:53 437.485
XW-2F 23 Jan 18:18:44 18:22:25 47° 261° (W) 18:26:05 145.980 - 146.000
ISS 23 Jan 18:26:30 18:28:47 18° 127° (SE) 18:31:03 437.550
XW-2D 23 Jan 18:31:37 18:34:55 28° 263° (W) 18:38:14 145.860 - 145.880
UWE-3 23 Jan 18:34:46 18:37:58 20° 69° (ENE) 18:41:12 435.000/436.395/437.385
CUBEBUG 2 23 Jan 18:35:01 18:39:01 37° 73° (ENE) 18:43:11 437.445
HO-68 23 Jan 18:38:16 18:45:24 78° 73° (ENE) 18:52:33 435.675
AAUSAT CUBESAT 2 23 Jan 18:41:40 18:44:03 15° 70° (ENE) 18:46:25 437.432
XW-2B 23 Jan 18:50:09 18:52:44 17° 265° (W) 18:55:19 145.730 - 145.750
ZACube-1 23 Jan 18:52:02 18:54:38 15° 68° (ENE) 18:57:15 437.345
AO-73 23 Jan 18:56:53 18:59:26 15° 68° (ENE) 19:01:59 145.935
PCSat 23 Jan 19:02:16 19:07:40 64° 64° (ENE) 19:13:01 145.827
SEEDS 23 Jan 19:07:39 19:11:52 90° 72° (ENE) 19:16:05 437.485
CUTE-I 23 Jan 19:12:27 19:16:27 22° 264° (W) 19:20:30 437.470
BEESAT 2 23 Jan 19:13:03 19:16:54 45° 60° (ENE) 19:20:40 435.950
STRAND 1 23 Jan 19:18:41 19:23:11 30° 98° (E) 19:27:40 437.568
KKS-1 23 Jan 19:19:10 19:20:32 11° 294° (WNW) 19:21:53 437.445
XW-2A 23 Jan 19:22:15 19:25:24 36° 75° (ENE) 19:28:34 145.665 - 145.685
STARS 23 Jan 19:24:04 19:27:39 25° 289° (WNW) 19:31:15 437.465
Oscar 11 23 Jan 19:26:03 19:29:08 19° 70° (ENE) 19:32:13 .
CUTE 1.7 + AOD 2 23 Jan 19:27:04 19:30:46 28° 263° (W) 19:34:28 437.475
nSIGHT-1 23 Jan 19:36:00 19:38:53 33° 319° (NW) 19:41:47 .
ISS 23 Jan 20:02:12 20:05:04 28° 321° (NW) 20:07:57 437.550
RS-15 23 Jan 20:08:30 20:14:18 16° 261° (W) 20:20:02 29.354- 29.394
UWE-3 23 Jan 20:10:18 20:14:08 29° 264° (W) 20:18:04 435.000/436.395/437.385
CUBEBUG 2 23 Jan 20:13:18 20:15:45 15° 267° (W) 20:18:14 437.445
AAUSAT CUBESAT 2 23 Jan 20:15:29 20:19:10 32° 262° (W) 20:22:52 437.432
DELFI C3 23 Jan 20:23:51 20:25:39 13° 69° (ENE) 20:27:27 145.870
ZACube-1 23 Jan 20:26:22 20:30:29 38° 262° (W) 20:34:43 437.345
HO-68 23 Jan 20:30:02 20:33:38 14° 267° (W) 20:37:15 435.675
AO-73 23 Jan 20:31:06 20:35:14 39° 262° (W) 20:39:28 145.935
FO-29 23 Jan 20:32:13 20:37:23 69° 102° (ESE) 20:42:50 435.910
PCSat 23 Jan 20:48:13 20:50:25 12° 257° (WSW) 20:52:36 145.827
AO-85 23 Jan 20:50:58 20:56:04 73° 62° (ENE) 21:01:23 145.980
STRAND 1 23 Jan 20:58:02 21:02:10 25° 291° (WNW) 21:06:17 437.568
Oscar 11 23 Jan 21:01:19 21:05:01 28° 263° (W) 21:08:46 .
TIGRISAT 23 Jan 21:11:40 21:14:12 14° 93° (E) 21:16:43 435.000
UNISAT 6 23 Jan 21:26:44 21:30:33 24° 96° (E) 21:34:20 437.425
Max Valier Satellite 23 Jan 21:54:39 21:58:18 54° 260° (W) 22:01:59 145.860
DELFI C3 23 Jan 21:56:30 22:00:02 32° 262° (W) 22:03:34 145.870
EO-88 23 Jan 22:05:33 22:09:11 63° 260° (W) 22:12:48 145.990 - 145.960
ESTCUBE 1 23 Jan 22:10:51 22:12:46 13° 67° (ENE) 22:14:41 437.505/2401.250
YUBILEINY 23 Jan 22:14:13 22:21:55 35° 87° (E) 22:29:34 435.215
PRISM 23 Jan 22:15:10 22:17:16 14° 95° (E) 22:19:23 437.425
FO-29 23 Jan 22:21:06 22:21:56 10° 295° (WNW) 22:22:46 435.910
AO-85 23 Jan 22:34:30 22:35:59 11° 253° (WSW) 22:37:28 145.980
AIST 2D 23 Jan 22:45:36 22:47:05 12° 94° (E) 22:48:36 435.315
TIGRISAT 23 Jan 22:46:34 22:51:00 42° 286° (WNW) 22:55:23 435.000
UNISAT 6 23 Jan 23:03:16 23:07:07 25° 289° (WNW) 23:10:55 437.425
NO-84 23 Jan 23:12:42 23:14:11 13° 41° (NE) 23:15:42 435.350 FM
LO-87 23 Jan 23:14:13 23:17:44 78° 258° (WSW) 23:21:19 145.935 - 145.965
QB50P2 23 Jan 23:17:33 23:18:36 11° 93° (E) 23:19:38 145.880/145.840
VELOX 1 23 Jan 23:32:26 23:33:55 12° 67° (ENE) 23:35:23 145.980
DUCHIFAT 1 23 Jan 23:40:36 23:42:47 14° 94° (E) 23:44:58 145.980
O/OREOS (USA 219) 23 Jan 23:43:26 23:47:50 54° 106° (ESE) 23:52:13 437.305
ESTCUBE 1 23 Jan 23:44:44 23:49:05 48° 260° (W) 23:53:28 437.505/2401.250
EO-79 23 Jan 23:45:07 23:48:28 22° 96° (E) 23:51:48 145.935-145.965
PRISM 23 Jan 23:48:54 23:52:34 33° 287° (WNW) 23:56:15 437.425
YUBILEINY 24 Jan 00:10:15 00:18:25 42° 282° (WNW) 00:26:37 435.215
AIST 2D 24 Jan 00:17:22 00:20:13 24° 286° (WNW) 00:23:02 435.315
POLYITAN 1 24 Jan 00:20:17 00:24:32 63° 101° (E) 00:28:45 437.675
NANOSAT C BR1 24 Jan 00:32:36 00:36:53 79° 102° (ESE) 00:41:07 145.865
SPROUT 24 Jan 00:36:21 00:40:29 55° 260° (W) 00:44:41 437.525
AO-91 24 Jan 00:42:55 00:45:09 13° 95° (E) 00:47:27 145.960
NO-84 24 Jan 00:48:47 00:51:20 27° 234° (SW) 00:54:00 435.350 FM
QB50P2 24 Jan 00:50:27 00:54:33 46° 285° (WNW) 00:58:36 145.880/145.840
UKube-1 24 Jan 00:55:59 00:56:17 10° 66° (ENE) 00:56:35 .
Oscar 19 24 Jan 01:03:04 01:06:28 18° 95° (E) 01:09:53 437.125/150
50 SAT 24 Jan 01:03:44 01:05:25 14° 71° (ENE) 01:07:07 437.505
VELOX 1 24 Jan 01:05:37 01:09:52 49° 260° (W) 01:14:06 145.980
DX 1 24 Jan 01:11:28 01:15:11 29° 72° (ENE) 01:18:56 434.975-435.025
DUCHIFAT 1 24 Jan 01:14:36 01:18:30 36° 287° (WNW) 01:22:22 145.980
Gurwin Techsat 1B 24 Jan 01:15:58 01:19:34 18° 95° (E) 01:23:09 435.225
EO-79 24 Jan 01:20:41 01:24:04 23° 289° (WNW) 01:27:25 145.935-145.965
FALCONSAT 3 24 Jan 01:24:18 01:27:14 23° 150° (SSE) 01:30:10 435.103
O/OREOS (USA 219) 24 Jan 01:26:07 01:27:31 11° 300° (WNW) 01:28:54 437.305
MOZHAYETS 4 24 Jan 01:54:49 01:57:20 15° 68° (ENE) 01:59:54
BUGSAT 1 24 Jan 02:02:11 02:06:17 49° 286° (WNW) 02:10:21 437.445
nSIGHT-1 24 Jan 02:06:39 02:09:04 20° 37° (NE) 02:11:29 .
AO-91 24 Jan 02:16:57 02:21:38 55° 284° (WNW) 02:26:41 145.960
AO-7 24 Jan 02:23:37 02:27:18 13° 93° (E) 02:30:58 .
UKube-1 24 Jan 02:27:34 02:31:45 54° 259° (W) 02:35:58 .
BEESAT 24 Jan 02:32:40 02:36:19 22° 69° (ENE) 02:40:00 436.000
ISS 24 Jan 02:33:49 02:36:34 25° 38° (NE) 02:39:20 437.550
50 SAT 24 Jan 02:34:54 02:36:55 16° 264° (W) 02:38:55 437.505
Oscar 19 24 Jan 02:41:04 02:45:53 41° 288° (WNW) 02:50:39 437.125/150
DX 1 24 Jan 02:48:25 02:51:20 18° 264° (W) 02:54:16 434.975-435.025
Gurwin Techsat 1B 24 Jan 02:54:37 02:59:36 42° 288° (WNW) 03:04:34 435.225
FALCONSAT 3 24 Jan 03:02:23 03:06:04 85° 343° (NNW) 03:09:45 435.103
MOZHAYETS 4 24 Jan 03:29:41 03:34:04 42° 261° (W) 03:38:29
ITUPSAT 1 24 Jan 03:31:45 03:36:31 80° 258° (WSW) 03:41:19 437.325
CUBESAT XI-V 24 Jan 03:41:51 03:46:26 55° 75° (ENE) 03:51:00 437.345
nSIGHT-1 24 Jan 03:42:29 03:45:12 26° 231° (SW) 03:47:55 .
ITAMSAT 1 24 Jan 03:54:42 03:59:38 42° 100° (E) 04:04:33 435.822/435.867
BEESAT 24 Jan 04:09:46 04:13:52 29° 262° (W) 04:18:00 436.000
ISS 24 Jan 04:10:23 04:12:56 21° 232° (SW) 04:15:29 437.550
DOVE 4 24 Jan 04:11:23 04:13:53 14° 95° (E) 04:16:27 437.250
AO-7 24 Jan 04:12:25 04:20:49 89° 106° (ESE) 04:29:10 .
SO-50 24 Jan 04:15:40 04:19:56 49° 114° (ESE) 04:24:16 436.795
KKS-1 24 Jan 04:33:31 04:37:08 25° 71° (ENE) 04:40:46 437.445
FALCONSAT 3 24 Jan 04:41:48 04:45:20 43° 357° (N) 04:48:52 435.103
STARS 24 Jan 04:42:00 04:42:58 11° 66° (ENE) 04:43:58 437.465
M-CUBED/EXP-1 PRIME 24 Jan 05:12:47 05:15:48 35° 104° (ESE) 05:18:48 437.505
CUBESAT XI-V 24 Jan 05:22:54 05:24:01 11° 268° (W) 05:25:09 437.345
LilacSat-2 24 Jan 05:27:40 05:28:33 11° 93° (E) 05:29:26 437.200
ITAMSAT 1 24 Jan 05:35:11 05:38:43 19° 293° (WNW) 05:42:14 435.822/435.867
DOVE 4 24 Jan 05:47:22 05:51:35 41° 285° (WNW) 05:56:03 437.250
KAITUO 1B 24 Jan 05:48:58 05:50:37 13° 94° (E) 05:52:15 145.475/437.950
NUDT-PHONESAT 24 Jan 05:53:01 05:54:48 13° 94° (E) 05:56:36 437.300
CUTE-I 24 Jan 05:54:12 05:58:16 22° 96° (E) 06:02:18 437.470
XW-2F 24 Jan 05:55:59 05:58:56 22° 96° (E) 06:01:52 145.980 - 146.000
SO-50 24 Jan 05:58:12 06:00:39 14° 310° (NW) 06:03:07 436.795
RS-15 24 Jan 05:58:59 06:07:33 23° 101° (E) 06:16:05 29.354- 29.394
AO-7 24 Jan 06:07:38 06:12:27 17° 304° (NW) 06:17:16 .
XW-2D 24 Jan 06:08:27 06:11:58 38° 99° (E) 06:15:27 145.860 - 145.880
KKS-1 24 Jan 06:10:13 06:13:34 21° 264° (W) 06:16:57 437.445
HO-68 24 Jan 06:13:20 06:18:07 19° 95° (E) 06:22:53 435.675
STARS 24 Jan 06:14:32 06:18:46 52° 259° (W) 06:23:02 437.465
FALCONSAT 3 24 Jan 06:21:02 06:24:41 60° 13° (NNE) 06:28:19 435.103
XW-2B 24 Jan 06:26:01 06:29:45 67° 101° (E) 06:33:27 145.730 - 145.750
STRAND 1 24 Jan 06:29:51 06:34:00 26° 70° (ENE) 06:38:10 437.568
CUBEBUG 2 24 Jan 06:32:25 06:34:34 13° 92° (E) 06:36:42 437.445
FO-29 24 Jan 06:40:30 06:44:50 19° 68° (ENE) 06:48:52 435.910
XW-2C 24 Jan 06:56:47 07:00:19 40° 285° (WNW) 07:03:48 145.795 - 145.815
SEEDS 24 Jan 06:57:05 07:00:15 21° 96° (E) 07:03:24 437.485
LilacSat-2 24 Jan 06:59:28 07:02:53 34° 286° (WNW) 07:06:17 437.200
CUTE 1.7 + AOD 2 24 Jan 07:16:10 07:20:20 70° 100° (E) 07:24:30 437.475
KAITUO 1B 24 Jan 07:21:25 07:24:35 28° 286° (WNW) 07:27:43 145.475/437.950
NUDT-PHONESAT 24 Jan 07:25:32 07:28:37 26° 287° (WNW) 07:31:40 437.300
JUGNU 24 Jan 07:29:31 07:32:11 13° 163° (SSE) 07:34:50 437.505
XW-2F 24 Jan 07:30:25 07:32:48 16° 289° (WNW) 07:35:11 145.980 - 146.000
CUTE-I 24 Jan 07:33:29 07:38:18 36° 289° (WNW) 07:43:08 437.470
PCSat 24 Jan 07:57:38 08:00:59 17° 104° (ESE) 08:04:20 145.827
HO-68 24 Jan 07:59:07 08:06:10 63° 288° (WNW) 08:13:12 435.675
FALCONSAT 3 24 Jan 08:00:14 08:03:41 38° 206° (SSW) 08:07:06 435.103
AAUSAT CUBESAT 2 24 Jan 08:01:51 08:05:51 53° 100° (E) 08:09:51 437.432
BEESAT 3 24 Jan 08:02:01 08:05:18 25° 111° (ESE) 08:08:35 437.485
UWE-3 24 Jan 08:04:06 08:08:47 84° 102° (ESE) 08:13:19 435.000/436.395/437.385
RS-15 24 Jan 08:06:19 08:18:40 82° 297° (WNW) 08:30:58 29.354- 29.394
CUBEBUG 2 24 Jan 08:06:46 08:11:21 48° 285° (WNW) 08:15:50 437.445
STRAND 1 24 Jan 08:08:41 08:13:01 28° 263° (W) 08:17:23 437.568
ZACube-1 24 Jan 08:19:22 08:23:50 61° 100° (E) 08:28:11 437.345
XW-2A 24 Jan 08:20:38 08:23:59 84° 101° (ESE) 08:27:17 145.665 - 145.685
UNISAT 6 24 Jan 08:22:34 08:24:02 11° 66° (ENE) 08:25:30 437.425
FO-29 24 Jan 08:22:40 08:29:31 59° 258° (WSW) 08:35:35 435.910
AO-73 24 Jan 08:23:46 08:28:12 59° 100° (E) 08:32:31 145.935
SEEDS 24 Jan 08:32:33 08:35:47 22° 288° (WNW) 08:39:01 437.485
YUBILEINY 24 Jan 08:34:19 08:36:38 11° 66° (ENE) 08:38:56 435.215
Oscar 11 24 Jan 08:52:44 08:57:03 78° 102° (ESE) 09:01:20 .
BEESAT 2 24 Jan 08:59:10 09:02:32 27° 112° (ESE) 09:05:58 435.950
JUGNU 24 Jan 09:16:04 09:20:34 23° 172° (S) 09:25:02 437.505
Max Valier Satellite 24 Jan 09:30:07 09:32:41 18° 95° (E) 09:35:15 145.860
DELFI C3 24 Jan 09:37:39 09:41:22 39° 99° (E) 09:45:04 145.870
PCSat 24 Jan 09:38:41 09:43:54 49° 298° (WNW) 09:49:08 145.827
TIGRISAT 24 Jan 09:39:22 09:43:46 88° 77° (ENE) 09:48:19 435.000
BEESAT 3 24 Jan 09:39:46 09:42:44 20° 305° (NW) 09:45:44 437.485
EO-88 24 Jan 09:40:03 09:42:09 15° 95° (E) 09:44:14 145.990 - 145.960
UNISAT 6 24 Jan 09:55:53 10:00:11 51° 260° (W) 10:04:36 437.425
O/OREOS (USA 219) 24 Jan 09:58:30 10:02:47 43° 68° (ENE) 10:07:04 437.305
